ATC200 HTDA-HKJK

Flight info

Callsign ATC200
Flight time 1h 13m
Altitude 20000
Route EGVAT1D GEREN UL445 GABSO GABSO4C
Aircraft DH8D/M-SDE2E3FGRY/H

Departure

Time 2026-04-26 10:57
Airport Julius Nyerere International Airport (HTDA)

Arrival

Time 2026-04-26 12:11
Airport Jomo Kenyatta International Airport (HKJK)
Time Latitude Longitude Altitude Speed Heading
2026-04-26 10:30 -6.86521 39.21094 186 ft 0 kts 315°
2026-04-26 10:49 -6.86522 39.21095 186 ft 1 kts 315°
2026-04-26 10:49 -6.86533 39.21106 185 ft 2 kts 315°
2026-04-26 10:49 -6.86544 39.21117 184 ft 2 kts 315°
2026-04-26 10:49 -6.86554 39.21127 184 ft 2 kts 315°
2026-04-26 10:50 -6.86565 39.21138 184 ft 2 kts 315°
2026-04-26 10:50 -6.86572 39.21145 183 ft 2 kts 316°
2026-04-26 10:50 -6.86590 39.21148 183 ft 2 kts 26°
2026-04-26 10:50 -6.86597 39.21143 183 ft 0 kts 46°
2026-04-26 10:54 -6.86534 39.21208 183 ft 12 kts 44°
2026-04-26 10:54 -6.86468 39.21274 184 ft 14 kts 46°
2026-04-26 10:54 -6.86412 39.21347 185 ft 12 kts 85°
2026-04-26 10:54 -6.86423 39.21423 183 ft 11 kts 55°
2026-04-26 10:55 -6.86365 39.21482 182 ft 11 kts 45°
2026-04-26 10:55 -6.86326 39.21556 180 ft 12 kts 88°
2026-04-26 10:55 -6.86342 39.21615 177 ft 5 kts 114°
2026-04-26 10:55 -6.86363 39.21662 175 ft 8 kts 118°
2026-04-26 10:56 -6.86404 39.21682 174 ft 6 kts 229°
2026-04-26 10:56 -6.86444 39.21635 175 ft 15 kts 220°
2026-04-26 10:56 -6.86626 39.21449 180 ft 78 kts 224°
2026-04-26 10:56 -6.87204 39.20867 186 ft 150 kts 224°
2026-04-26 10:57 -6.87948 39.20064 573 ft 163 kts 227°
2026-04-26 10:57 -6.88709 39.19186 1215 ft 170 kts 228°
2026-04-26 10:57 -6.89475 39.18270 1857 ft 177 kts 229°
2026-04-26 10:57 -6.90263 39.17302 2539 ft 182 kts 228°
2026-04-26 10:58 -6.91116 39.16365 3196 ft 188 kts 224°
2026-04-26 10:58 -6.91802 39.15226 3742 ft 199 kts 260°
2026-04-26 10:58 -6.91465 39.13878 4271 ft 207 kts 302°
2026-04-26 10:58 -6.90625 39.12701 4821 ft 211 kts 306°
2026-04-26 10:59 -6.89752 39.11511 5368 ft 214 kts 307°
2026-04-26 10:59 -6.88851 39.10283 5921 ft 217 kts 307°
2026-04-26 10:59 -6.87951 39.09051 6428 ft 221 kts 307°
2026-04-26 10:59 -6.87042 39.07802 6971 ft 222 kts 307°
2026-04-26 11:00 -6.86127 39.06540 7541 ft 222 kts 307°
2026-04-26 11:00 -6.85217 39.05284 8025 ft 224 kts 307°
2026-04-26 11:00 -6.84299 39.04013 8508 ft 226 kts 307°
2026-04-26 11:00 -6.83378 39.02738 8991 ft 227 kts 307°
2026-04-26 11:01 -6.82448 39.01450 9477 ft 228 kts 307°
2026-04-26 11:01 -6.81515 39.00158 9894 ft 231 kts 307°
2026-04-26 11:01 -6.80562 38.98836 10366 ft 231 kts 307°
2026-04-26 11:01 -6.79619 38.97528 10808 ft 232 kts 307°
2026-04-26 11:02 -6.78588 38.96270 11246 ft 231 kts 323°
2026-04-26 11:02 -6.77116 38.95747 11539 ft 227 kts
2026-04-26 11:02 -6.75722 38.96355 11831 ft 222 kts 47°
2026-04-26 11:02 -6.74744 38.97557 12209 ft 222 kts 52°
2026-04-26 11:03 -6.73674 38.98706 12612 ft 224 kts 45°
2026-04-26 11:03 -6.72495 38.99756 12957 ft 227 kts 41°
2026-04-26 11:03 -6.71252 39.00719 13315 ft 230 kts 37°
2026-04-26 11:03 -6.69918 39.01648 13643 ft 233 kts 35°
2026-04-26 11:04 -6.68541 39.02530 13968 ft 236 kts 33°
2026-04-26 11:04 -6.67111 39.03393 14293 ft 239 kts 31°
2026-04-26 11:04 -6.65663 39.04228 14600 ft 241 kts 30°
2026-04-26 11:04 -6.64201 39.05043 14959 ft 241 kts 30°
2026-04-26 11:05 -6.62717 39.05850 15255 ft 244 kts 29°
2026-04-26 11:05 -6.61106 39.06427 15502 ft 247 kts
2026-04-26 11:05 -6.59408 39.06210 15748 ft 248 kts 346°
2026-04-26 11:05 -6.57721 39.05804 16068 ft 248 kts 346°
2026-04-26 11:06 -6.56027 39.05394 16366 ft 249 kts 345°
2026-04-26 11:06 -6.54343 39.04984 16667 ft 250 kts 345°
2026-04-26 11:06 -6.52641 39.04569 16927 ft 252 kts 345°
2026-04-26 11:06 -6.50935 39.04153 17230 ft 252 kts 345°
2026-04-26 11:07 -6.49211 39.03733 17486 ft 253 kts 345°
2026-04-26 11:07 -6.47496 39.03315 17767 ft 254 kts 345°
2026-04-26 11:07 -6.45771 39.02895 18032 ft 254 kts 345°
2026-04-26 11:07 -6.44050 39.02476 18280 ft 255 kts 345°
2026-04-26 11:08 -6.42322 39.02056 18540 ft 255 kts 345°
2026-04-26 11:08 -6.40608 39.01638 18778 ft 255 kts 345°
2026-04-26 11:08 -6.38858 39.01212 19010 ft 256 kts 346°
2026-04-26 11:08 -6.37118 39.00789 19257 ft 256 kts 346°
2026-04-26 11:09 -6.35393 39.00368 19480 ft 257 kts 346°
2026-04-26 11:09 -6.33639 38.99941 19710 ft 257 kts 346°
2026-04-26 11:09 -6.31902 38.99519 19852 ft 262 kts 346°
2026-04-26 11:09 -6.30072 38.99073 19901 ft 271 kts 346°
2026-04-26 11:10 -6.28211 38.98620 19916 ft 280 kts 347°
2026-04-26 11:10 -6.26277 38.98135 19915 ft 289 kts 344°
2026-04-26 11:10 -6.24364 38.97440 19914 ft 298 kts 338°
2026-04-26 11:10 -6.22408 38.96624 19916 ft 305 kts 337°
2026-04-26 11:11 -6.20438 38.95797 19915 ft 312 kts 337°
2026-04-26 11:11 -6.18402 38.94942 19916 ft 317 kts 337°
2026-04-26 11:11 -6.16360 38.94085 19919 ft 322 kts 338°
2026-04-26 11:11 -6.14266 38.93206 19916 ft 326 kts 338°
2026-04-26 11:12 -6.12142 38.92315 19913 ft 329 kts 338°
2026-04-26 11:12 -6.10029 38.91430 19911 ft 332 kts 338°
2026-04-26 11:12 -6.07873 38.90527 19911 ft 334 kts 338°
2026-04-26 11:12 -6.05694 38.89613 19914 ft 336 kts 338°
2026-04-26 11:13 -6.03528 38.88707 19910 ft 338 kts 338°
2026-04-26 11:13 -6.01354 38.87796 19913 ft 339 kts 338°
2026-04-26 11:13 -5.99180 38.86886 19910 ft 340 kts 338°
2026-04-26 11:13 -5.96970 38.85959 19905 ft 342 kts 338°
2026-04-26 11:14 -5.94777 38.85042 19905 ft 343 kts 338°
2026-04-26 11:14 -5.92546 38.84108 19911 ft 344 kts 338°
2026-04-26 11:14 -5.90348 38.83189 19911 ft 345 kts 338°
2026-04-26 11:14 -5.88117 38.82256 19914 ft 345 kts 338°
2026-04-26 11:15 -5.85900 38.81328 19914 ft 345 kts 338°
2026-04-26 11:15 -5.83654 38.80389 19914 ft 346 kts 338°
2026-04-26 11:15 -5.81440 38.79462 19911 ft 347 kts 338°
2026-04-26 11:15 -5.79186 38.78520 19912 ft 347 kts 338°
2026-04-26 11:16 -5.76969 38.77593 19909 ft 347 kts 338°
2026-04-26 11:16 -5.74730 38.76657 19913 ft 347 kts 338°
2026-04-26 11:16 -5.72491 38.75720 19911 ft 347 kts 338°
2026-04-26 11:16 -5.70245 38.74781 19912 ft 347 kts 338°
2026-04-26 11:17 -5.68037 38.73858 19919 ft 347 kts 338°
2026-04-26 11:17 -5.65796 38.72921 19912 ft 347 kts 338°
2026-04-26 11:17 -5.63550 38.71981 19920 ft 347 kts 338°
2026-04-26 11:17 -5.61335 38.71055 19913 ft 346 kts 338°
2026-04-26 11:18 -5.59097 38.70120 19918 ft 345 kts 338°
2026-04-26 11:18 -5.56892 38.69199 19919 ft 344 kts 339°
2026-04-26 11:18 -5.54614 38.68250 19945 ft 358 kts 339°
2026-04-26 11:18 -5.52303 38.67289 19926 ft 360 kts 338°
2026-04-26 11:19 -5.49992 38.66320 19925 ft 358 kts 338°
2026-04-26 11:19 -5.47689 38.65357 19929 ft 356 kts 338°
2026-04-26 11:19 -5.45423 38.64410 19931 ft 354 kts 338°
2026-04-26 11:19 -5.43137 38.63454 19932 ft 353 kts 338°
2026-04-26 11:20 -5.40863 38.62504 19934 ft 352 kts 339°
2026-04-26 11:20 -5.39369 38.61880 19940 ft 351 kts 338°
2026-04-26 11:20 -5.36347 38.60618 19942 ft 350 kts 339°
2026-04-26 11:20 -5.34082 38.59673 19946 ft 350 kts 339°
2026-04-26 11:21 -5.31829 38.58731 19944 ft 349 kts 338°
2026-04-26 11:21 -5.29590 38.57796 19943 ft 349 kts 339°
2026-04-26 11:21 -5.27357 38.56864 19944 ft 348 kts 338°
2026-04-26 11:21 -5.25108 38.55926 19947 ft 348 kts 339°
2026-04-26 11:22 -5.22865 38.54989 19946 ft 347 kts 338°
2026-04-26 11:22 -5.20621 38.54052 19949 ft 346 kts 339°
2026-04-26 11:22 -5.18415 38.53131 19947 ft 346 kts 338°
2026-04-26 11:22 -5.16162 38.52191 19951 ft 346 kts 339°
2026-04-26 11:23 -5.13963 38.51274 19954 ft 345 kts 338°
2026-04-26 11:23 -5.11740 38.50347 19960 ft 345 kts 339°
2026-04-26 11:23 -5.09507 38.49415 19960 ft 345 kts 339°
2026-04-26 11:23 -5.07291 38.48492 19969 ft 344 kts 339°
2026-04-26 11:24 -5.05059 38.47561 19971 ft 344 kts 338°
2026-04-26 11:24 -5.02858 38.46641 19973 ft 344 kts 339°
2026-04-26 11:24 -5.00646 38.45719 19975 ft 343 kts 339°
2026-04-26 11:24 -4.98428 38.44794 19978 ft 343 kts 339°
2026-04-26 11:25 -4.96210 38.43869 19994 ft 343 kts 339°
2026-04-26 11:25 -4.93994 38.42945 20004 ft 343 kts 339°
2026-04-26 11:25 -4.91787 38.42025 20013 ft 343 kts 339°
2026-04-26 11:25 -4.89592 38.41110 20020 ft 343 kts 339°
2026-04-26 11:26 -4.87367 38.40183 20027 ft 343 kts 339°
2026-04-26 11:26 -4.85173 38.39269 20046 ft 343 kts 339°
2026-04-26 11:26 -4.82952 38.38342 20057 ft 342 kts 339°
2026-04-26 11:26 -4.80737 38.37419 20072 ft 342 kts 339°
2026-04-26 11:27 -4.78547 38.36506 20089 ft 341 kts 339°
2026-04-26 11:27 -4.76334 38.35584 20109 ft 341 kts 339°
2026-04-26 11:27 -4.74137 38.34668 20122 ft 341 kts 339°
2026-04-26 11:27 -4.71946 38.33755 20124 ft 341 kts 339°
2026-04-26 11:28 -4.69754 38.32842 20126 ft 341 kts 339°
2026-04-26 11:28 -4.67558 38.31927 20128 ft 341 kts 339°
2026-04-26 11:28 -4.65378 38.31019 20131 ft 340 kts 339°
2026-04-26 11:28 -4.63161 38.30095 20131 ft 340 kts 339°
2026-04-26 11:29 -4.60985 38.29189 20134 ft 340 kts 339°
2026-04-26 11:29 -4.58790 38.28275 20138 ft 340 kts 339°
2026-04-26 11:29 -4.56591 38.27359 20137 ft 340 kts 339°
2026-04-26 11:29 -4.54402 38.26448 20141 ft 340 kts 339°
2026-04-26 11:30 -4.52237 38.25546 20148 ft 339 kts 339°
2026-04-26 11:30 -4.50778 38.24939 20153 ft 339 kts 339°
2026-04-26 11:30 -4.47853 38.23721 20140 ft 339 kts 339°
2026-04-26 11:30 -4.45673 38.22813 20127 ft 339 kts 339°
2026-04-26 11:31 -4.43491 38.21904 20116 ft 339 kts 339°
2026-04-26 11:31 -4.41318 38.21000 20098 ft 339 kts 339°
2026-04-26 11:31 -4.39128 38.20088 20092 ft 338 kts 339°
2026-04-26 11:31 -4.36932 38.19174 20079 ft 338 kts 339°
2026-04-26 11:32 -4.34776 38.18277 20070 ft 337 kts 339°
2026-04-26 11:32 -4.32588 38.17366 20060 ft 337 kts 339°
2026-04-26 11:32 -4.30438 38.16471 20052 ft 337 kts 339°
2026-04-26 11:32 -4.28242 38.15557 20047 ft 337 kts 339°
2026-04-26 11:33 -4.26087 38.14661 20051 ft 336 kts 339°
2026-04-26 11:33 -4.23934 38.13765 20057 ft 335 kts 339°
2026-04-26 11:33 -4.21776 38.12867 20064 ft 335 kts 339°
2026-04-26 11:33 -4.19599 38.11961 20064 ft 335 kts 339°
2026-04-26 11:34 -4.17432 38.11060 20067 ft 335 kts 339°
2026-04-26 11:34 -4.15281 38.10165 20069 ft 335 kts 339°
2026-04-26 11:34 -4.13139 38.09274 20066 ft 335 kts 339°
2026-04-26 11:34 -4.10954 38.08362 20055 ft 335 kts 339°
2026-04-26 11:35 -4.08833 38.07385 20051 ft 335 kts 336°
2026-04-26 11:35 -4.06723 38.06363 20048 ft 335 kts 336°
2026-04-26 11:35 -4.04629 38.05345 20047 ft 335 kts 336°
2026-04-26 11:35 -4.03219 38.04660 20043 ft 335 kts 336°
2026-04-26 11:36 -4.00410 38.03295 20039 ft 334 kts 336°
2026-04-26 11:36 -3.98334 38.02286 20040 ft 334 kts 336°
2026-04-26 11:36 -3.96238 38.01267 20039 ft 334 kts 336°
2026-04-26 11:36 -3.94117 38.00236 20038 ft 334 kts 336°
2026-04-26 11:37 -3.92034 37.99224 20044 ft 334 kts 336°
2026-04-26 11:37 -3.89953 37.98212 20048 ft 333 kts 336°
2026-04-26 11:37 -3.87844 37.97188 20049 ft 333 kts 336°
2026-04-26 11:37 -3.85746 37.96168 20049 ft 333 kts 336°
2026-04-26 11:38 -3.83673 37.95161 20055 ft 333 kts 336°
2026-04-26 11:38 -3.81587 37.94147 20058 ft 333 kts 336°
2026-04-26 11:38 -3.79483 37.93124 20056 ft 333 kts 336°
2026-04-26 11:38 -3.77393 37.92109 20055 ft 333 kts 336°
2026-04-26 11:39 -3.75312 37.91098 20057 ft 332 kts 336°
2026-04-26 11:39 -3.73223 37.90083 20057 ft 332 kts 336°
2026-04-26 11:39 -3.71154 37.89078 20056 ft 332 kts 336°
2026-04-26 11:39 -3.69065 37.88063 20058 ft 332 kts 336°
2026-04-26 11:40 -3.66966 37.87043 20061 ft 331 kts 336°
2026-04-26 11:40 -3.64910 37.86045 20064 ft 331 kts 336°
2026-04-26 11:40 -3.62839 37.85039 20064 ft 331 kts 336°
2026-04-26 11:40 -3.60751 37.84025 20059 ft 331 kts 336°
2026-04-26 11:41 -3.58669 37.83014 20054 ft 331 kts 336°
2026-04-26 11:42 -3.44187 37.75983 20065 ft 329 kts 336°
2026-04-26 11:43 -3.42105 37.74972 20066 ft 329 kts 336°
2026-04-26 11:43 -3.40046 37.73972 20067 ft 329 kts 336°
2026-04-26 11:43 -3.37987 37.72973 20073 ft 328 kts 336°
2026-04-26 11:43 -3.35911 37.71965 20071 ft 328 kts 336°
2026-04-26 11:44 -3.33868 37.70973 20073 ft 328 kts 336°
2026-04-26 11:44 -3.31790 37.69965 20082 ft 328 kts 336°
2026-04-26 11:44 -3.29742 37.68971 20085 ft 328 kts 336°
2026-04-26 11:44 -3.27696 37.67978 20093 ft 327 kts 336°
2026-04-26 11:45 -3.25628 37.66975 20101 ft 327 kts 336°
2026-04-26 11:45 -3.23578 37.65980 20109 ft 327 kts 336°
2026-04-26 11:45 -3.21519 37.64981 20119 ft 327 kts 336°
2026-04-26 11:45 -3.19475 37.63990 20125 ft 327 kts 336°
2026-04-26 11:46 -3.17417 37.62991 20130 ft 327 kts 336°
2026-04-26 11:46 -3.15368 37.61997 20139 ft 327 kts 336°
2026-04-26 11:46 -3.13311 37.60999 20147 ft 327 kts 336°
2026-04-26 11:46 -3.11268 37.60008 20154 ft 326 kts 336°
2026-04-26 11:47 -3.09228 37.59018 20163 ft 326 kts 336°
2026-04-26 11:47 -3.07159 37.58015 20176 ft 326 kts 336°
2026-04-26 11:47 -3.05126 37.57029 20181 ft 326 kts 336°
2026-04-26 11:47 -3.03074 37.56033 20189 ft 326 kts 336°
2026-04-26 11:48 -3.01036 37.55045 20191 ft 326 kts 335°
2026-04-26 11:48 -2.98970 37.54042 20196 ft 326 kts 336°
2026-04-26 11:48 -2.96931 37.53054 20188 ft 326 kts 336°
2026-04-26 11:48 -2.94892 37.52065 20184 ft 326 kts 336°
2026-04-26 11:49 -2.92833 37.51066 20184 ft 325 kts 336°
2026-04-26 11:49 -2.90786 37.50074 20184 ft 325 kts 336°
2026-04-26 11:49 -2.88755 37.49089 20178 ft 325 kts 336°
2026-04-26 11:49 -2.86704 37.48094 20173 ft 325 kts 336°
2026-04-26 11:50 -2.84659 37.47103 20162 ft 325 kts 336°
2026-04-26 11:50 -2.82623 37.46115 20154 ft 325 kts 336°
2026-04-26 11:50 -2.80565 37.45119 20146 ft 328 kts 336°
2026-04-26 11:50 -2.78513 37.44125 20140 ft 327 kts 336°
2026-04-26 11:51 -2.76480 37.43139 20134 ft 327 kts 336°
2026-04-26 11:51 -2.74401 37.42130 20128 ft 327 kts 336°
2026-04-26 11:51 -2.72353 37.41137 20125 ft 326 kts 336°
2026-04-26 11:51 -2.70313 37.40149 20132 ft 326 kts 336°
2026-04-26 11:52 -2.68264 37.39156 20132 ft 327 kts 336°
2026-04-26 11:52 -2.66904 37.38496 20132 ft 327 kts 336°
2026-04-26 11:52 -2.64169 37.37171 20131 ft 326 kts 336°
2026-04-26 11:52 -2.62117 37.36176 20131 ft 326 kts 336°
2026-04-26 11:53 -2.60082 37.35190 20129 ft 325 kts 336°
2026-04-26 11:53 -2.58028 37.34195 20132 ft 325 kts 336°
2026-04-26 11:53 -2.55990 37.33207 20127 ft 324 kts 336°
2026-04-26 11:54 -2.51935 37.31242 20120 ft 324 kts 336°
2026-04-26 11:54 -2.49896 37.30253 20120 ft 324 kts 336°
2026-04-26 11:54 -2.47853 37.29263 20123 ft 326 kts 336°
2026-04-26 11:54 -2.45772 37.28261 20128 ft 333 kts 336°
2026-04-26 11:55 -2.43674 37.27243 20125 ft 331 kts 336°
2026-04-26 11:55 -2.41599 37.26236 20128 ft 330 kts 336°
2026-04-26 11:55 -2.39539 37.25237 20131 ft 329 kts 336°
2026-04-26 11:55 -2.37477 37.24237 20125 ft 326 kts 336°
2026-04-26 11:56 -2.35442 37.23250 20125 ft 324 kts 336°
2026-04-26 11:56 -2.33414 37.22267 20125 ft 323 kts 336°
2026-04-26 11:56 -2.31396 37.21290 20125 ft 322 kts 336°
2026-04-26 11:56 -2.29380 37.20314 20131 ft 321 kts 336°
2026-04-26 11:57 -2.27340 37.19326 20133 ft 322 kts 336°
2026-04-26 11:57 -2.25345 37.18360 20132 ft 322 kts 336°
2026-04-26 11:57 -2.23314 37.17377 20141 ft 322 kts 336°
2026-04-26 11:57 -2.21301 37.16402 20145 ft 322 kts 336°
2026-04-26 11:58 -2.19278 37.15422 20150 ft 322 kts 336°
2026-04-26 11:58 -2.17217 37.14424 20064 ft 324 kts 336°
2026-04-26 11:58 -2.15188 37.13442 19954 ft 327 kts 336°
2026-04-26 11:58 -2.13131 37.12447 19844 ft 329 kts 336°
2026-04-26 11:59 -2.11059 37.11443 19730 ft 331 kts 336°
2026-04-26 11:59 -2.08986 37.10439 19621 ft 332 kts 336°
2026-04-26 11:59 -2.06893 37.09426 19513 ft 334 kts 336°
2026-04-26 11:59 -2.04786 37.08406 19400 ft 335 kts 336°
2026-04-26 12:00 -2.02670 37.07381 19288 ft 336 kts 336°
2026-04-26 12:00 -2.00558 37.06359 19175 ft 337 kts 336°
2026-04-26 12:00 -1.98426 37.05327 19063 ft 338 kts 336°
2026-04-26 12:00 -1.96300 37.04297 18954 ft 338 kts 336°
2026-04-26 12:01 -1.94165 37.03263 18842 ft 338 kts 336°
2026-04-26 12:01 -1.92047 37.02238 18730 ft 339 kts 336°
2026-04-26 12:01 -1.89916 37.01206 18619 ft 339 kts 336°
2026-04-26 12:01 -1.87773 37.00169 18507 ft 339 kts 336°
2026-04-26 12:02 -1.85641 36.99137 18395 ft 340 kts 336°
2026-04-26 12:02 -1.83492 36.98097 18280 ft 340 kts 336°
2026-04-26 12:02 -1.81344 36.97057 18184 ft 340 kts 336°
2026-04-26 12:02 -1.79200 36.96020 17939 ft 345 kts 336°
2026-04-26 12:03 -1.76992 36.94953 17504 ft 355 kts 336°
2026-04-26 12:03 -1.74764 36.93877 17005 ft 364 kts 336°
2026-04-26 12:03 -1.72435 36.92751 16454 ft 370 kts 336°
2026-04-26 12:03 -1.70118 36.91628 15885 ft 366 kts 336°
2026-04-26 12:04 -1.67855 36.90527 15340 ft 358 kts 335°
2026-04-26 12:04 -1.65654 36.89457 14812 ft 351 kts 335°
2026-04-26 12:04 -1.63472 36.88398 14287 ft 345 kts 335°
2026-04-26 12:04 -1.61326 36.87356 13775 ft 337 kts 335°
2026-04-26 12:05 -1.59237 36.86344 13281 ft 331 kts 335°
2026-04-26 12:05 -1.57174 36.85344 12787 ft 322 kts 335°
2026-04-26 12:05 -1.55201 36.84384 12312 ft 310 kts 335°
2026-04-26 12:05 -1.53281 36.83451 11851 ft 299 kts 335°
2026-04-26 12:06 -1.51472 36.82512 11404 ft 289 kts 329°
2026-04-26 12:06 -1.49847 36.81391 10995 ft 281 kts 325°
2026-04-26 12:06 -1.48277 36.80251 10582 ft 275 kts 325°
2026-04-26 12:06 -1.46747 36.79139 10179 ft 267 kts 325°
2026-04-26 12:07 -1.45097 36.78288 9466 ft 268 kts 349°
2026-04-26 12:07 -1.43314 36.78466 9011 ft 255 kts 25°
2026-04-26 12:07 -1.42044 36.79584 8598 ft 242 kts 61°
2026-04-26 12:07 -1.41637 36.81155 8266 ft 226 kts 78°
2026-04-26 12:08 -1.41120 36.82603 7720 ft 223 kts 59°
2026-04-26 12:08 -1.40018 36.83629 7337 ft 210 kts 32°
2026-04-26 12:08 -1.38827 36.84388 7075 ft 195 kts 35°
2026-04-26 12:08 -1.37734 36.85109 6789 ft 178 kts 37°
2026-04-26 12:09 -1.36757 36.85881 6721 ft 181 kts 47°
2026-04-26 12:09 -1.35996 36.86927 6598 ft 190 kts 62°
2026-04-26 12:09 -1.35293 36.88060 6536 ft 191 kts 58°
2026-04-26 12:09 -1.34583 36.89187 6111 ft 190 kts 58°
2026-04-26 12:10 -1.33824 36.90192 5884 ft 172 kts 52°
2026-04-26 12:10 -1.33139 36.91116 5540 ft 161 kts 56°
2026-04-26 12:10 -1.32491 36.92004 5343 ft 153 kts 57°
2026-04-26 12:10 -1.31947 36.92752 5336 ft 104 kts 54°
2026-04-26 12:11 -1.31610 36.93214 5336 ft 49 kts 54°
2026-04-26 12:11 -1.31600 36.93353 5336 ft 19 kts 142°
2026-04-26 12:11 -1.31702 36.93428 5336 ft 15 kts 142°
2026-04-26 12:11 -1.31780 36.93482 5336 ft 11 kts 160°
2026-04-26 12:12 -1.31839 36.93457 5336 ft 8 kts 229°
2026-04-26 12:12 -1.31879 36.93404 5336 ft 10 kts 234°
2026-04-26 12:12 -1.31926 36.93340 5336 ft 10 kts 234°
2026-04-26 12:12 -1.31955 36.93301 5336 ft 11 kts 234°
2026-04-26 12:13 -1.32014 36.93219 5336 ft 10 kts 234°
2026-04-26 12:13 -1.32066 36.93148 5336 ft 13 kts 233°
2026-04-26 12:13 -1.32126 36.93062 5336 ft 16 kts 236°
2026-04-26 12:13 -1.32187 36.92976 5336 ft 13 kts 233°
2026-04-26 12:14 -1.32238 36.92910 5336 ft 10 kts 232°
2026-04-26 12:14 -1.32277 36.92857 5336 ft 8 kts 235°
2026-04-26 12:14 -1.32307 36.92815 5336 ft 6 kts 235°
2026-04-26 12:14 -1.32331 36.92781 5336 ft 5 kts 231°
2026-04-26 12:15 -1.32343 36.92766 5336 ft 2 kts 232°
2026-04-26 12:15 -1.32362 36.92741 5336 ft 6 kts 235°
2026-04-26 12:15 -1.32396 36.92693 5336 ft 10 kts 235°
2026-04-26 12:15 -1.32443 36.92628 5337 ft 13 kts 234°
2026-04-26 12:16 -1.32501 36.92548 5337 ft 15 kts 234°
2026-04-26 12:16 -1.32566 36.92458 5337 ft 16 kts 236°
2026-04-26 12:16 -1.32631 36.92366 5337 ft 14 kts 227°
2026-04-26 12:16 -1.32706 36.92365 5337 ft 10 kts 146°
2026-04-26 12:17 -1.32754 36.92401 5337 ft 6 kts 138°
2026-04-26 12:17 -1.32773 36.92435 5337 ft 4 kts 97°
2026-04-26 12:17 -1.32768 36.92463 5337 ft 3 kts 73°
2026-04-26 12:17 -1.32760 36.92494 5337 ft 4 kts 54°
2026-04-26 12:18 -1.32721 36.92504 5337 ft 7 kts
2026-04-26 12:18 -1.32676 36.92501 5337 ft 5 kts 340°
2026-04-26 12:18 -1.32665 36.92473 5337 ft 4 kts 242°
2026-04-26 12:18 -1.32690 36.92464 5337 ft 3 kts 181°
2026-04-26 12:19 -1.32707 36.92465 5337 ft 1 kts 174°
2026-04-26 12:19 -1.32721 36.92467 5337 ft 0 kts 174°